Location: Lahas
(43.5538°N, 0.8906°E)
Time: 05:29:45
(UTC+00:00)

PSLV R/B - Pass Details

Date: 15 May 2026
Orbit: 585 x 678 km, 97.9° (Epoch: 6 June)

Event Time Altitude Azimuth Distance (km) Brightness Sun altitude
Rises 23:11:51 0° 15° (NNE) 2,882 8.0 -26.7°
Reaches altitude 10° 23:14:02 10° 19° (NNE) 1,986 6.9 -26.8°
Enters shadow 23:17:19 48° 44° (NE) 823 4.3 -26.9°
